Time,TemperatureF,DewpointF,PressureIn,WindDirection,WindDirectionDegrees,WindSpeedMPH,WindSpeedGustMPH,Humidity,HourlyPrecipIn,Conditions,Clouds,dailyrainin,SoftwareType,DateUTC
2013-08-17 00:03:00,64.0,59.0,30.20,North,0,0.0,-999.0,82,-99.99,,,-99.99,,2013-08-17 05:03:00,
2013-08-17 00:22:00,63.0,59.0,30.20,North,0,0.0,-999.0,88,-99.99,,,-99.99,,2013-08-17 05:22:00,
2013-08-17 00:42:00,63.0,57.0,30.20,North,0,0.0,-999.0,82,-99.99,,,-99.99,,2013-08-17 05:42:00,
2013-08-17 01:21:00,61.0,57.0,30.20,North,0,0.0,-999.0,87,-99.99,,,-99.99,,2013-08-17 06:21:00,
2013-08-17 01:42:00,61.0,57.0,30.19,North,0,0.0,-999.0,87,-99.99,,,-99.99,,2013-08-17 06:42:00,
2013-08-17 02:22:00,61.0,57.0,30.19,North,0,0.0,-999.0,87,-99.99,,,-99.99,,2013-08-17 07:22:00,
2013-08-17 02:42:00,59.0,55.0,30.19,North,0,0.0,-999.0,87,-99.99,,,-99.99,,2013-08-17 07:42:00,
2013-08-17 03:21:00,61.0,57.0,30.18,North,0,0.0,-999.0,87,-99.99,,,-99.99,,2013-08-17 08:21:00,
2013-08-17 03:42:00,59.0,55.0,30.18,North,0,0.0,-999.0,87,-99.99,,,-99.99,,2013-08-17 08:42:00,
2013-08-17 04:21:00,59.0,57.0,30.19,North,0,0.0,-999.0,93,-99.99,,,-99.99,,2013-08-17 09:21:00,
2013-08-17 04:43:00,57.0,55.0,30.19,North,0,0.0,-999.0,93,-99.99,,,-99.99,,2013-08-17 09:43:00,
2013-08-17 05:23:00,59.0,57.0,30.19,North,0,0.0,-999.0,93,-99.99,,,-99.99,,2013-08-17 10:23:00,
2013-08-17 05:42:00,59.0,57.0,30.18,North,0,0.0,-999.0,93,-99.99,,,-99.99,,2013-08-17 10:42:00,
2013-08-17 06:22:00,61.0,57.0,30.19,North,0,0.0,-999.0,87,-99.99,,,-99.99,,2013-08-17 11:22:00,
2013-08-17 06:42:00,61.0,57.0,30.19,South,180,5.0,-999.0,87,-99.99,,,-99.99,,2013-08-17 11:42:00,
2013-08-17 07:21:00,61.0,57.0,30.19,North,0,0.0,-999.0,87,-99.99,,,-99.99,,2013-08-17 12:21:00,
2013-08-17 07:42:00,61.0,57.0,30.19,North,0,0.0,-999.0,87,-99.99,,,-99.99,,2013-08-17 12:42:00,
2013-08-17 08:21:00,61.0,57.0,30.19,SSE,150,5.0,-999.0,87,-99.99,,,-99.99,,2013-08-17 13:21:00,
2013-08-17 08:42:00,63.0,57.0,30.20,South,170,7.0,-999.0,82,-99.99,,,-99.99,,2013-08-17 13:42:00,
2013-08-17 09:21:00,64.0,59.0,30.20,SSE,160,8.0,-999.0,82,-99.99,,,-99.99,,2013-08-17 14:21:00,
2013-08-17 09:42:00,66.0,61.0,30.20,South,170,9.0,-999.0,82,-99.99,,,-99.99,,2013-08-17 14:42:00,
2013-08-17 10:22:00,66.0,61.0,30.19,SSE,160,8.0,-999.0,82,-99.99,,,-99.99,,2013-08-17 15:22:00,
2013-08-17 10:44:00,70.0,63.0,30.19,South,170,9.0,-999.0,77,-99.99,,,-99.99,,2013-08-17 15:44:00,
2013-08-17 10:53:00,70.0,63.0,30.19,SSE,160,8.0,-999.0,77,-99.99,,,-99.99,,2013-08-17 15:53:00,
2013-08-17 11:03:00,70.0,63.0,30.19,SSE,160,8.0,-999.0,77,-99.99,,,-99.99,,2013-08-17 16:03:00,
2013-08-17 11:23:00,72.0,63.0,30.18,SSE,160,9.0,-999.0,73,-99.99,,,-99.99,,2013-08-17 16:23:00,
2013-08-17 11:42:00,73.0,63.0,30.18,South,180,10.0,15.0,68,-99.99,,,-99.99,,2013-08-17 16:42:00,
2013-08-17 12:23:00,73.0,63.0,30.17,SSE,160,14.0,21.0,68,-99.99,,,-99.99,,2013-08-17 17:23:00,
2013-08-17 12:42:00,75.0,63.0,30.17,SSE,160,14.0,21.0,64,-99.99,,,-99.99,,2013-08-17 17:42:00,
2013-08-17 13:21:00,75.0,64.0,30.17,South,170,14.0,23.0,69,-99.99,,,-99.99,,2013-08-17 18:21:00,
2013-08-17 13:42:00,75.0,64.0,30.17,SSE,160,14.0,21.0,69,-99.99,,,-99.99,,2013-08-17 18:42:00,
2013-08-17 14:21:00,77.0,64.0,30.16,South,170,13.0,20.0,65,-99.99,,,-99.99,,2013-08-17 19:21:00,
2013-08-17 14:42:00,77.0,63.0,30.15,South,180,15.0,21.0,61,-99.99,,,-99.99,,2013-08-17 19:42:00,
2013-08-17 15:21:00,77.0,63.0,30.15,South,170,15.0,22.0,61,-99.99,,,-99.99,,2013-08-17 20:21:00,
2013-08-17 15:42:00,77.0,63.0,30.14,South,170,13.0,20.0,61,-99.99,,,-99.99,,2013-08-17 20:42:00,
2013-08-17 15:52:00,77.0,63.0,30.14,SSE,160,13.0,20.0,61,-99.99,,,-99.99,,2013-08-17 20:52:00,
2013-08-17 16:01:00,77.0,63.0,30.14,SSE,160,13.0,20.0,61,-99.99,,,-99.99,,2013-08-17 21:01:00,
2013-08-17 16:21:00,77.0,63.0,30.14,SSE,160,15.0,-999.0,61,-99.99,,,-99.99,,2013-08-17 21:21:00,
2013-08-17 16:42:00,77.0,63.0,30.14,SSE,160,10.0,20.0,61,-99.99,,,-99.99,,2013-08-17 21:42:00,
2013-08-17 17:23:00,79.0,63.0,30.13,South,170,10.0,17.0,57,-99.99,,,-99.99,,2013-08-17 22:23:00,
2013-08-17 17:42:00,79.0,64.0,30.13,SSE,160,8.0,-999.0,61,-99.99,,,-99.99,,2013-08-17 22:42:00,
2013-08-17 18:22:00,77.0,63.0,30.13,SSE,160,12.0,20.0,61,-99.99,,,-99.99,,2013-08-17 23:22:00,
2013-08-17 18:42:00,77.0,63.0,30.13,South,170,10.0,16.0,61,-99.99,,,-99.99,,2013-08-17 23:42:00,
2013-08-17 19:21:00,75.0,63.0,30.13,SSE,150,12.0,18.0,64,-99.99,,,-99.99,,2013-08-18 00:21:00,
2013-08-17 19:42:00,73.0,61.0,30.13,SE,140,8.0,-999.0,64,-99.99,,,-99.99,,2013-08-18 00:42:00,
2013-08-17 20:21:00,73.0,63.0,30.12,SSE,160,5.0,-999.0,68,-99.99,,,-99.99,,2013-08-18 01:21:00,
2013-08-17 20:42:00,72.0,61.0,30.13,North,0,0.0,-999.0,68,-99.99,,,-99.99,,2013-08-18 01:42:00,
2013-08-17 21:21:00,70.0,61.0,30.13,SSE,160,6.0,-999.0,73,-99.99,,,-99.99,,2013-08-18 02:21:00,
2013-08-17 21:42:00,68.0,61.0,30.13,SSE,160,5.0,-999.0,77,-99.99,,,-99.99,,2013-08-18 02:42:00,
2013-08-17 22:21:00,66.0,59.0,30.14,SSE,160,7.0,-999.0,77,-99.99,,,-99.99,,2013-08-18 03:21:00,
2013-08-17 22:43:00,66.0,59.0,30.13,South,180,6.0,-999.0,77,-99.99,,,-99.99,,2013-08-18 03:43:00,
2013-08-17 23:02:00,-999.0,-99.9,30.14,North,0,0.0,-999.0,-999,-99.99,,,-99.99,,2013-08-18 04:02:00,
2013-08-17 23:23:00,64.0,59.0,30.14,SSE,160,5.0,-999.0,82,-99.99,,,-99.99,,2013-08-18 04:23:00,
2013-08-17 23:42:00,64.0,59.0,30.14,North,0,0.0,-999.0,82,-99.99,,,-99.99,,2013-08-18 04:42:00,